Flag for Finland Weather past 2 weeks in Kokkola, Finland

Now
36 °F

Partly cloudy.


Feels Like: 32 °F
Forecast: 40 / 44 °F
Wind: 5 mph from Northwest

Location: Kruunupyy

Current Time: Sep 24, 2014 at 1:41:00 AM

Latest Report: Sep 24, 2014 at 12:50 AM


Visibility: N/A

Pressure: 29.74 "Hg

Humidity: 93%

Dew point: 34 °F

Location of KokkolaLocation

Historic Weather in Kokkola — Graph

°F

Kokkola temperature yesterday

Maximum temperature yesterday: 45 °F (at 2:20 PM)
Minimum temperature yesterday: 30 °F (at 6:50 AM)
Average temperature yesterday: 37 °F

Past Weeks' High & Low Weather Summary

 TemperatureHumidityPressure
High73 °F (Sep 9, 3:50 PM)100% (Sep 9, 12:50 AM)30.48 "Hg (Sep 9, 12:50 AM)
Low30 °F (Sep 15, 5:50 AM)39% (Sep 15, 4:20 PM)29.62 "Hg (Sep 21, 11:20 AM)
Average51 °F85%30.12 "Hg
* Reported Sep 9 12:20 AM — Sep 24 12:20 AM, Kokkola, Weather by CustomWeather, © 2014

Note: Actual official high and low records may vary slightly from our data, if they occured in-between our weather recording intervals... More about our weather records

Advertising

Kokkola weather history for previous 24 hours

 ConditionsComfort  
Time TempWeatherWind HumidityBarometerVisibility
12:20 AM
Sep 24
36 °FPartly cloudy.6 mph87%29.77 "HgN/A
11:50 PM
Sep 23
36 °FPartly cloudy.6 mph87%29.77 "HgN/A
11:20 PM34 °FClear.6 mph87%29.77 "Hg10 mi
10:50 PM34 °FPassing clouds.5 mph87%29.77 "HgN/A
10:20 PM36 °FPassing clouds.6 mph87%29.80 "HgN/A
9:50 PM34 °FPassing clouds.5 mph93%29.80 "HgN/A
9:20 PM36 °FPartly cloudy.3 mph87%29.80 "HgN/A
8:50 PM36 °FSprinkles. Passing clouds.6 mph93%29.80 "HgN/A
8:20 PM36 °FSprinkles. Broken clouds.8 mph93%29.83 "HgN/A
7:50 PM37 °FSprinkles. Broken clouds.10 mph87%29.83 "HgN/A
7:20 PM37 °FScattered showers. Partly sunny.9 mph87%29.83 "HgN/A
6:50 PM39 °FScattered showers. Broken clouds.9 mph87%29.83 "HgN/A
6:20 PM39 °FScattered showers. Broken clouds.12 mph87%29.83 "HgN/A
5:50 PM41 °FSprinkles. Scattered clouds.15 mph70%29.83 "HgN/A
5:20 PM41 °FSprinkles. Scattered clouds.13 mph76%29.83 "HgN/A
4:50 PM41 °FScattered clouds.13 mph76%29.83 "HgN/A
4:20 PM41 °FPassing clouds.20 mph70%29.83 "HgN/A
3:50 PM45 °FScattered clouds.18 mph57%29.83 "HgN/A
3:20 PM43 °FPassing clouds.17 mph57%29.86 "HgN/A
2:50 PM43 °FPassing clouds.20 mph53%29.86 "HgN/A
2:20 PM45 °FScattered clouds.20 mph49%29.86 "HgN/A
1:50 PM43 °FScattered clouds.17 mph57%29.86 "HgN/A
1:20 PM43 °FScattered clouds.18 mph53%29.89 "HgN/A
12:50 PM43 °FPassing clouds.17 mph53%29.89 "HgN/A
12:20 PM41 °FScattered clouds.17 mph61%29.89 "HgN/A
11:50 AM41 °FPassing clouds.20 mph57%29.89 "HgN/A
11:20 AM41 °FPassing clouds.15 mph57%29.89 "HgN/A
10:50 AM39 °FPassing clouds.14 mph56%29.89 "HgN/A
10:20 AM39 °FPassing clouds.16 mph52%29.92 "HgN/A
9:50 AM37 °FPassing clouds.15 mph56%29.92 "HgN/A
9:20 AM36 °FPassing clouds.13 mph65%29.92 "HgN/A
8:50 AM34 °FPassing clouds.10 mph70%29.92 "HgN/A
8:20 AM34 °FPassing clouds.10 mph70%29.92 "HgN/A
7:50 AM32 °FPassing clouds.9 mph75%29.92 "HgN/A
7:20 AM30 °FPassing clouds.8 mph80%29.92 "HgN/A
6:50 AM30 °FPassing clouds.8 mph75%29.92 "HgN/A
6:20 AM32 °FClear.7 mph69%29.92 "Hg10 mi
5:50 AM32 °FClear.8 mph69%29.92 "Hg10 mi
5:20 AM32 °FClear.9 mph75%29.92 "Hg10 mi
4:50 AM32 °FClear.9 mph75%29.95 "Hg10 mi
4:20 AM32 °FClear.9 mph75%29.95 "Hg10 mi
3:50 AM32 °FClear.8 mph75%29.95 "Hg10 mi
3:20 AM32 °FPassing clouds.8 mph75%29.95 "HgN/A
2:50 AM34 °FClear.8 mph70%29.95 "Hg10 mi
2:20 AM34 °FPassing clouds.9 mph70%29.95 "HgN/A
1:50 AM34 °FClear.10 mph70%29.95 "Hg10 mi
1:20 AM34 °FPassing clouds.12 mph65%29.95 "HgN/A
Weather by CustomWeather, © 2014

See weather overviewHow to use our weather pages